User: anonymous   Login
Location: Ammerl�gen
(47.2167°N, 9.6000°E)
Time: 11:04:44
(UTC+00:00)
Language:

AO-73 - Orbit

View from above orbital plane
View from above orbital plane
View from above satellite
View from above satellite

Ground track
Ground track

The orbit data is extracted from the following two-line orbital elements,

1 39444U 13066AE  21334.74017091  .00000949  00000-0  12098-3 0  9997
2 39444  97.6019 313.0202 0056686 326.8322  32.9342 14.82642507432074
Epoch (UTC): 30 November 2021 17:45:50
Eccentricity: 0.0056686
inclination: 97.6019°
perigee height: 581 km
apogee height: 660 km
right ascension of ascending node: 313.0202°
argument of perigee: 326.8322°
revolutions per day: 14.82642507
mean anomaly at epoch: 32.9342°
orbit number at epoch: 43207

The dashed part of the orbit path shows where the satellite is in the earth's shadow,  

DLR